FW0299 Weather Reports


Display with metric or nautical units.
time (UTC)temp
F
wind
direction
speed
MPH
gust
MPH
rain 1hr
in
rain 24hr
in
rain mn
in
humidity
%
barometer
mb
20260506050810 52 333 0.0 0.0 0.00 0.00 0.00 80 1018.2
20260506045028 53 333 0.0 0.0 0.00 0.00 0.00 80 1018.1
20260506044521 53 333 0.0 3.0 0.00 0.00 0.00 80 1018.0
20260506044015 53 333 0.0 3.0 0.00 0.00 0.00 79 1017.8
20260506043508 54 337 0.0 2.0 0.00 0.00 0.00 79 1017.8
20260506043224 54 327 0.0 2.0 0.00 0.00 0.00 77 1017.7
20260506042720 55 323 1.0 4.0 0.00 0.00 0.00 77 1017.6
20260506041952 55 265 1.0 4.0 0.00 0.00 0.00 75 1017.4
20260506041446 56 255 1.0 3.0 0.00 0.00 0.00 74 1017.3
20260506040940 57 263 1.0 4.0 0.00 0.00 0.00 72 1017.2
20260506040434 58 260 2.0 4.0 0.00 0.00 0.00 69 1017.2
20260506035929 58 260 3.0 5.0 0.00 0.00 0.00 68 1017.0
20260506034916 60 221 2.0 8.0 0.00 0.00 0.00 63 1016.9
20260506034635 62 244 0.0 4.0 0.00 0.00 0.00 54 1016.8
20260506033903 62 46 0.0 1.0 0.00 0.00 0.00 50 1016.7
20260506033620 63 46 0.0 2.0 0.00 0.00 0.00 51 1016.7
20260506032345 64 46 0.0 1.0 0.00 0.00 0.00 47 1016.4
20260506031838 65 46 0.0 1.0 0.00 0.00 0.00 46 1016.3
20260506031334 66 46 0.0 1.0 0.00 0.00 0.00 45 1016.2
20260506030828 67 46 0.0 1.0 0.00 0.00 0.00 43 1016.1
20260506030323 67 45 0.0 3.0 0.00 0.00 0.00 41 1016.0
20260506030038 68 45 0.0 3.0 0.00 0.00 0.00 39 1016.0
20260506025531 69 43 1.0 3.0 0.00 0.00 0.00 40 1015.9
20260506024803 69 39 1.0 3.0 0.00 0.00 0.00 37 1015.8
20260506024259 70 29 1.0 3.0 0.00 0.00 0.00 37 1015.6
20260506023759 71 21 1.0 6.0 0.00 0.00 0.00 36 1015.5
20260506023300 71 107 1.0 6.0 0.00 0.00 0.00 37 1015.3
20260506022757 71 105 2.0 6.0 0.00 0.00 0.00 35 1015.3
20260506022257 72 74 3.0 6.0 0.00 0.00 0.00 35 1015.3
20260506021757 72 37 2.0 5.0 0.00 0.00 0.00 34 1015.2
20260506021258 73 57 1.0 4.0 0.00 0.00 0.00 35 1015.2
20260506020755 73 116 2.0 9.0 0.00 0.00 0.00 34 1015.2
20260506020520 73 116 3.0 9.0 0.00 0.00 0.00 33 1015.1
20260506015752 73 134 3.0 8.0 0.00 0.00 0.00 33 1015.0
20260506015251 73 108 4.0 10.0 0.00 0.00 0.00 33 1015.1
20260506015019 73 119 4.0 11.0 0.00 0.00 0.00 33 1014.9
20260506014516 74 119 4.0 11.0 0.00 0.00 0.00 33 1014.9
20260506013751 74 88 4.0 10.0 0.00 0.00 0.00 33 1014.6
20260506013516 74 58 4.0 11.0 0.00 0.00 0.00 33 1014.6
20260506013017 74 94 4.0 11.0 0.00 0.00 0.00 32 1014.6
20260506012252 74 46 3.0 8.0 0.00 0.00 0.00 32 1014.5
20260506011747 75 130 4.0 13.0 0.00 0.00 0.00 32 1014.3
20260506011247 75 170 5.0 13.0 0.00 0.00 0.00 32 1014.3
20260506010746 75 144 4.0 10.0 0.00 0.00 0.00 31 1014.3
20260506010246 75 144 4.0 10.0 0.00 0.00 0.00 32 1014.3
20260506010011 75 119 5.0 11.0 0.00 0.00 0.00 32 1014.4
20260506005246 75 113 5.0 11.0 0.00 0.00 0.00 32 1014.3
20260506004747 75 159 5.0 10.0 0.00 0.00 0.00 32 1014.3
20260506004245 75 100 4.0 12.0 0.00 0.00 0.00 33 1014.4
20260506003744 75 132 4.0 12.0 0.00 0.00 0.00 32 1014.3
20260506003244 76 334 5.0 11.0 0.00 0.00 0.00 31 1014.2
20260506002745 76 136 4.0 11.0 0.00 0.00 0.00 31 1014.2
20260506002245 76 0 4.0 9.0 0.00 0.00 0.00 31 1014.2
20260506001745 76 355 4.0 13.0 0.00 0.00 0.00 32 1014.3
20260506001246 76 5 3.0 13.0 0.00 0.00 0.00 34 1014.1
20260506000745 75 51 4.0 11.0 0.00 0.00 0.00 32 1014.1
20260506000247 75 5 4.0 15.0 0.00 0.00 0.00 33 1014.3
20260505235745 75 5 4.0 15.0 0.00 0.00 0.00 33 1014.2
20260505235244 75 32 4.0 11.0 0.00 0.00 0.00 33 1014.1
20260505234746 75 19 4.0 12.0 0.00 0.00 0.00 34 1014.1
20260505234243 75 323 5.0 12.0 0.00 0.00 0.00 34 1014.1
20260505233243 75 306 4.0 12.0 0.00 0.00 0.00 34 1014.1
20260505232740 75 320 3.0 9.0 0.00 0.00 0.00 31 1014.1
20260505232242 75 157 4.0 10.0 0.00 0.00 0.00 34 1014.1
20260505231739 75 26 4.0 11.0 0.00 0.00 0.00 32 1014.2
20260505231237 74 0 5.0 11.0 0.00 0.00 0.00 34 1014.3
20260505230737 74 340 5.0 13.0 0.00 0.00 0.00 32 1014.3
20260505225736 75 119 4.0 13.0 0.00 0.00 0.00 33 1014.3
20260505225235 74 47 4.0 10.0 0.00 0.00 0.00 33 1014.4
20260505224734 74 319 5.0 13.0 0.00 0.00 0.00 31 1014.4
20260505224234 74 30 6.0 14.0 0.00 0.01 0.00 33 1014.4
20260505223732 74 287 5.0 14.0 0.00 0.02 0.00 34 1014.5
20260505223233 74 309 4.0 11.0 0.00 0.02 0.00 34 1014.4
20260505222727 74 338 4.0 12.0 0.00 0.02 0.00 33 1014.5
20260505222443 74 18 4.0 11.0 0.00 0.02 0.00 32 1014.6
20260505221715 74 11 5.0 11.0 0.00 0.02 0.00 34 1014.6
20260505221209 74 13 4.0 11.0 0.00 0.02 0.00 34 1014.8
20260505220702 74 128 5.0 12.0 0.00 0.02 0.00 37 1014.5
20260505220155 73 80 5.0 12.0 0.00 0.02 0.00 36 1014.6
20260505215649 73 15 4.0 10.0 0.00 0.02 0.00 34 1014.6
20260505214638 73 61 4.0 13.0 0.00 0.02 0.00 36 1014.8
20260505214357 72 63 5.0 13.0 0.00 0.02 0.00 35 1014.9
20260505213625 72 90 5.0 13.0 0.00 0.02 0.00 37 1014.8
20260505213120 72 17 5.0 13.0 0.00 0.02 0.00 38 1014.9
20260505212614 72 13 5.0 12.0 0.00 0.02 0.00 36 1015.0
20260505212108 72 50 4.0 11.0 0.00 0.02 0.00 37 1015.1
20260505211601 72 279 4.0 10.0 0.00 0.02 0.00 36 1015.1
20260505211055 72 108 4.0 10.0 0.00 0.02 0.00 36 1015.0
20260505210549 72 40 4.0 9.0 0.00 0.02 0.00 36 1015.1
20260505205537 71 13 4.0 12.0 0.00 0.02 0.00 38 1015.0
20260505205034 71 22 5.0 13.0 0.00 0.02 0.00 40 1015.1
20260505204526 71 11 6.0 13.0 0.00 0.02 0.00 38 1015.1
20260505204247 71 84 5.0 12.0 0.00 0.02 0.00 40 1015.2
20260505203514 70 355 5.0 12.0 0.00 0.02 0.00 38 1015.2
20260505203007 70 53 4.0 11.0 0.00 0.02 0.00 36 1015.2
20260505202502 69 330 4.0 10.0 0.00 0.02 0.00 37 1015.2
20260505201956 69 28 4.0 12.0 0.00 0.02 0.00 38 1015.3
20260505201449 69 161 4.0 12.0 0.00 0.02 0.00 38 1015.4
20260505200944 69 113 4.0 10.0 0.00 0.02 0.00 41 1015.4
20260505200438 68 74 4.0 11.0 0.00 0.02 0.00 44 1015.5
20260505195932 68 92 4.0 11.0 0.00 0.02 0.00 43 1015.5
20260505195426 68 348 5.0 11.0 0.00 0.02 0.00 41 1015.5
20260505194920 67 109 5.0 11.0 0.00 0.02 0.00 43 1015.6
20260505194414 67 138 5.0 11.0 0.00 0.02 0.00 45 1015.5
20260505193907 67 134 5.0 11.0 0.00 0.02 0.00 45 1015.6
20260505193401 67 120 3.0 10.0 0.00 0.02 0.00 46 1015.6
20260505192902 67 72 3.0 9.0 0.00 0.02 0.00 45 1015.8
20260505192627 67 92 5.0 10.0 0.00 0.02 0.00 44 1015.8
20260505191902 66 107 5.0 11.0 0.00 0.02 0.00 43 1015.9
20260505191400 66 115 4.0 11.0 0.00 0.02 0.00 46 1015.8
20260505190901 66 140 4.0 11.0 0.00 0.02 0.00 48 1015.8
20260505190400 65 52 5.0 11.0 0.00 0.02 0.00 48 1015.8
20260505185859 65 0 4.0 11.0 0.00 0.02 0.00 47 1015.9
20260505185400 65 21 4.0 10.0 0.00 0.02 0.00 44 1015.9
20260505184900 65 115 5.0 9.0 0.00 0.02 0.00 44 1015.9
20260505184400 65 123 5.0 9.0 0.00 0.02 0.00 46 1015.9
20260505183624 64 38 3.0 10.0 0.00 0.02 0.00 46 1016.0
20260505182900 64 117 3.0 10.0 0.00 0.02 0.00 48 1016.0
20260505182400 64 9 2.0 9.0 0.00 0.02 0.00 49 1016.0
20260505181902 64 78 3.0 6.0 0.00 0.02 0.00 47 1016.0
20260505181359 63 177 3.0 10.0 0.00 0.02 0.00 46 1016.1
20260505180900 63 116 3.0 10.0 0.00 0.02 0.00 50 1016.1
20260505175900 62 57 3.0 10.0 0.00 0.02 0.00 56 1016.0
20260505175623 62 336 3.0 10.0 0.00 0.02 0.00 57 1016.0
20260505174859 62 92 3.0 8.0 0.00 0.02 0.00 61 1016.0
20260505174400 61 44 3.0 9.0 0.00 0.02 0.00 63 1015.9
20260505173120 60 355 3.0 11.0 0.00 0.02 0.00 62 1015.9
20260505172400 60 54 2.0 8.0 0.00 0.02 0.00 66 1015.9
20260505171859 60 114 3.0 6.0 0.00 0.02 0.00 66 1015.9
20260505171400 60 124 3.0 7.0 0.00 0.02 0.00 69 1015.8
20260505170858 60 44 3.0 9.0 0.00 0.02 0.00 69 1015.9
20260505170357 59 67 2.0 10.0 0.00 0.02 0.00 69 1015.8
20260505165858 59 351 2.0 10.0 0.00 0.02 0.00 70 1015.8
20260505165358 58 74 3.0 9.0 0.00 0.02 0.00 71 1015.9
20260505165129 58 95 3.0 9.0 0.00 0.02 0.00 72 1015.8
20260505164357 58 136 3.0 7.0 0.00 0.02 0.00 70 1015.8
20260505163858 57 17 5.0 11.0 0.00 0.02 0.00 74 1015.6
20260505163357 57 49 5.0 11.0 0.00 0.02 0.00 75 1015.8
20260505163130 57 0 3.0 11.0 0.00 0.02 0.00 73 1015.6
20260505162357 56 113 2.0 6.0 0.00 0.02 0.00 74 1015.5
20260505161858 56 17 3.0 9.0 0.00 0.02 0.00 77 1015.6
20260505161357 55 32 4.0 9.0 0.00 0.02 0.00 77 1015.6
20260505160858 55 9 3.0 8.0 0.00 0.02 0.00 79 1015.8
20260505160358 54 355 4.0 9.0 0.00 0.02 0.00 78 1015.8
20260505152847 51 57 3.0 6.0 0.00 0.02 0.00 1 1015.6
20260505152341 51 19 3.0 6.0 0.00 0.02 0.00 1 1015.5
20260505151329 49 10 1.0 5.0 0.00 0.02 0.00 1 1015.5
20260505150823 48 0 1.0 4.0 0.00 0.02 0.00 1 1015.4
20260505150540 47 349 0.0 0.0 0.00 0.02 0.00 1 1015.6
20260505140205 40 349 0.0 0.0 0.00 0.02 0.00 31 1015.0
20260505124536 41 349 0.0 0.0 0.00 0.02 0.00 47 1014.8
20260505124030 41 349 0.0 0.0 0.00 0.02 0.00 52 1014.8
20260505123524 41 349 0.0 0.0 0.00 0.02 0.00 53 1014.6
20260505123016 42 349 0.0 0.0 0.00 0.02 0.00 51 1014.6
20260505122511 42 349 0.0 0.0 0.00 0.02 0.00 50 1014.6
20260505121501 42 349 0.0 0.0 0.00 0.02 0.00 47 1014.5
20260505120955 42 349 0.0 0.0 0.00 0.02 0.00 45 1014.4
20260505120447 43 349 0.0 0.0 0.00 0.02 0.00 41 1014.4
20260505120201 43 349 0.0 0.0 0.00 0.02 0.00 38 1014.4
20260505115435 43 349 0.0 0.0 0.00 0.02 0.00 40 1014.4
20260505114930 43 349 0.0 0.0 0.00 0.02 0.00 41 1014.4
20260505114423 43 349 0.0 0.0 0.00 0.02 0.00 42 1014.3
20260505113917 43 349 0.0 0.0 0.00 0.02 0.00 44 1014.4
20260505113411 43 349 0.0 0.0 0.00 0.02 0.00 44 1014.3
20260505112906 44 349 0.0 0.0 0.00 0.02 0.00 43 1014.4
20260505112359 44 349 0.0 0.0 0.00 0.02 0.00 39 1014.3
20260505111853 44 349 0.0 0.0 0.00 0.02 0.00 39 1014.3
20260505110847 44 349 0.0 0.0 0.00 0.02 0.00 40 1014.3
20260505110347 44 349 0.0 0.0 0.00 0.02 0.00 38 1014.4
20260505101833 45 349 0.0 0.0 0.00 0.02 0.00 32 1014.3
20260505101334 45 349 0.0 0.0 0.00 0.02 0.00 32 1014.3
20260505100833 45 349 0.0 0.0 0.00 0.02 0.00 33 1014.2
20260505100333 45 349 0.0 0.0 0.00 0.02 0.00 32 1014.2
20260505095833 45 349 0.0 0.0 0.00 0.02 0.00 32 1014.2
20260505094833 45 350 0.0 0.0 0.00 0.02 0.00 35 1014.2
20260505094333 45 349 0.0 0.0 0.00 0.02 0.00 35 1014.2
20260505093831 45 350 0.0 0.0 0.00 0.02 0.00 36 1014.3
20260505093330 45 349 0.0 0.0 0.00 0.02 0.00 38 1014.3
20260505092830 45 349 0.0 0.0 0.00 0.02 0.00 40 1014.2
20260505092551 45 349 0.0 0.0 0.00 0.02 0.00 44 1014.2
20260505091831 46 349 0.0 0.0 0.00 0.02 0.00 45 1014.2
20260505091554 46 350 0.0 0.0 0.00 0.02 0.00 46 1014.2
20260505090830 46 350 0.0 0.0 0.00 0.02 0.00 47 1014.2
20260505090331 46 349 0.0 0.0 0.00 0.02 0.00 49 1014.2
20260505085830 46 349 0.0 0.0 0.00 0.02 0.00 50 1014.1
20260505085331 46 350 0.0 0.0 0.00 0.02 0.00 52 1014.1
20260505084832 46 350 0.0 0.0 0.00 0.02 0.00 52 1014.2
20260505084552 46 350 0.0 0.0 0.00 0.02 0.00 52 1014.3
20260505083831 46 349 0.0 0.0 0.00 0.02 0.00 52 1014.3
20260505083330 46 349 0.0 0.0 0.00 0.02 0.00 52 1014.3
20260505082830 47 355 0.0 3.0 0.00 0.02 0.00 52 1014.2
20260505082329 47 355 0.0 3.0 0.00 0.02 0.00 52 1014.3
20260505081829 47 323 0.0 0.0 0.00 0.02 0.00 51 1014.3
20260505081328 47 335 0.0 4.0 0.00 0.02 0.00 51 1014.3
20260505080829 47 336 1.0 4.0 0.00 0.02 0.00 51 1014.2
20260505080553 47 325 1.0 3.0 0.00 0.02 0.00 51 1014.3
20260505075826 47 343 1.0 3.0 0.00 0.02 0.00 52 1014.2
20260505075547 47 253 0.0 2.0 0.00 0.02 0.00 54 1014.2
20260505074825 48 246 0.0 3.0 0.00 0.02 0.00 53 1014.2
20260505074322 48 147 1.0 5.0 0.00 0.02 0.00 51 1014.1
20260505073823 48 355 1.0 5.0 0.00 0.02 0.00 48 1014.1
20260505073320 48 238 1.0 4.0 0.00 0.02 0.00 47 1014.2
20260505072820 48 351 1.0 5.0 0.00 0.02 0.00 47 1014.2
20260505072318 48 355 1.0 5.0 0.00 0.02 0.00 46 1014.2
20260505071817 48 355 1.0 5.0 0.00 0.02 0.00 44 1014.2
20260505071315 48 255 1.0 4.0 0.00 0.02 0.00 42 1014.2
20260505070813 49 280 1.0 4.0 0.00 0.02 0.00 41 1014.1
20260505070311 49 278 1.0 4.0 0.00 0.02 0.00 41 1014.0
20260505065810 49 323 1.0 4.0 0.00 0.02 0.02 42 1014.0
20260505065310 49 355 1.0 4.0 0.00 0.02 0.02 43 1013.9
20260505064810 49 349 2.0 7.0 0.00 0.02 0.02 44 1014.0
20260505064310 49 13 2.0 10.0 0.00 0.02 0.02 45 1014.0
20260505063809 49 341 2.0 10.0 0.00 0.02 0.02 45 1014.0
20260505063307 49 339 2.0 5.0 0.00 0.02 0.02 45 1013.9
20260505062808 49 252 2.0 6.0 0.00 0.02 0.02 45 1013.9
20260505062308 49 0 2.0 7.0 0.00 0.02 0.02 47 1014.0
20260505062029 49 350 2.0 7.0 0.00 0.02 0.02 48 1013.9
20260505060805 49 344 1.0 4.0 0.00 0.02 0.02 43 1013.7
20260505060306 49 355 0.0 4.0 0.00 0.02 0.02 38 1013.9
20260505055804 49 315 0.0 0.0 0.00 0.02 0.02 37 1013.7
20260505055259 49 315 0.0 0.0 0.00 0.02 0.02 36 1013.7